COSMOS 2499 DEB, 60616

Orbit data source: Space-Track

COSMOS 2499 DEB, 60616 is space debris in LEO originally from a launch on Fri, 23 May 2014 UTC launched from the Plesetsk Missile And Space Complex (PKMTR). Debris objects in space refer to the collection of defunct objects orbiting the Earth. Examples of debris include non-operational satellites, rocket bodies, and fragments generated from explosions, collisions, or faulty payload assembly.

Loading next visibility...
Identifier
60616, 2014-028CC
Orbit
LEO
Country
Flag of CISCIS
Related business
Manufacturer
TsNIIKhM
Mission
Spacecraft
Bus & Motor
Unknown
Mass
Unknown
Launch date (UTC)
2014-05-23 (12 years ago)
Launch vehicle
Unknown
Launch site
Plesetsk Missile And Space Complex (PKMTR)
Object type
Payload
Rocket body
Debris
Shape & HBR
Unknown shape, 0.1 m
Radar Cross Section
Small (<0.1 m²)

Expand to show TLE details & history
Last TLE update: 3 days ago

TLE from 3 days ago
0 COSMOS 2499 DEB
1 60616U 14028CC  25347.57834318  .00009184  00000-0  22534-1 0  9993
2 60616  81.9714 304.5118 0212847 328.8409  30.0229 13.13072405123559
Epoch: 2025-12-13T13:52Z
TLE epoch observation values (Epoch: 2025-12-13T13:52:48.850Z)
Latitude
-0.00003°
Longitude
13.80465°
Altitude
1,075.082 km
Speed
7.381 km/s
True Right ascension
20h 18m 02s
True Declination
0° 00' 00"
Sunlit
Object was in daylight at epoch
Visualization orbit readout
Latitude
Unknown
Longitude
Unknown
Altitude
Unknown
Speed
Unknown
Apparent Right ascension
Unknown
Apparent Declination
Unknown
Sunlit
N/A
Visualization observer readout
Local Sidereal Time
11:09:57
Azimuth
Unknown
Elevation
Unknown
Doppler factor
Unknown
Orbital elements
Apogee altitude
1,370.05 km
Perigee altitude
1,047.088 km
Semi-major axis
7,586.706 km
Eccentricity
0.02128
Inclination
81.9714°
RAAN
304.5118°
Arg. of periapsis
328.8409°
True anomaly
31.27192°
Mean anomaly
30.0229°
Eccentric anomaly
30.6445°
Mean motion
3.28445 °/min
Orbital period
109.61 mins
BSTAR
0.022534
Loading maneuver chart data...
Computing Atmospheric mass density...
Loading historical data...
Loading historical data...
Loading historical data...
Loading historical data...
Loading historical data...
Loading historical data...
Loading historical data...

Documentation

Showing up to 5 results
|